Regional Weather Roundup
Issued by NWS

Home | Current Version | Previous Version | Graphics & Text | Print | Product List | Glossary On
Versions: 1 2 3 4 5 6 7 8 9 10 11 12 13 14 15 16 17 18 19 20 21 22 23 24 25 26 27 28 29 30 31 32 33 34 35 36 37 38 39 40 41 42 43 44 45 46 47 48 49 50
000
ASUS45 KSLC 150310
RWRUT

UTAH REGIONAL WEATHER ROUNDUP
NATIONAL WEATHER SERVICE SALT LAKE CITY UT
900 PM MDT SUN SEP 14 2014

UTZ001>011-023>025-150400-

NORTHERN UTAH

CITY           SKY/WX    TMP DP  RH WIND       PRES   REMARKS
HILL AFB       PTCLDY    71  38  30 E10       30.05R
LOGAN          CLEAR     67  43  41 SE5       30.03R
OGDEN          PTCLDY    69  43  38 S8        30.02R
PROVO AIRPORT  MOCLDY    66  52  59 VRB3      30.03R
SALT LAKE CITY PTCLDY    76  41  28 CALM      30.00R
VERNAL         MOCLDY    63  43  48 W6        30.09R
WENDOVER       MOCLDY    77  30  18 CALM      29.99S
HEBER CITY     MOCLDY    61  41  48 CALM      30.12R
WEST JORDAN    CLEAR     72  39  30 CALM      30.04R

$$

UTZ012>022-026-027-150400-

SOUTHERN UTAH

CITY           SKY/WX    TMP DP  RH WIND       PRES   REMARKS
BRYCE CANYON   PTCLDY    52  44  74 SW3       30.28R
CEDAR CITY     CLEAR     70  37  29 SE6       30.11R
MILFORD        PTCLDY    71  35  26 S8        30.04R
MOAB/CYNLANDS  CLEAR     77  37  23 NE3       30.01R
PRICE          PTCLDY    69  31  24 N9        30.13R
ST GEORGE      MOCLDY    88  43  20 CALM      29.91R
KANAB            N/A     77  37  24 NW6       30.09R

$$

REGIONAL REPORTS     COLORADO/ARIZONA

CITY           SKY/WX    TMP DP  RH WIND       PRES   REMARKS
CRAIG, CO      MOCLDY    65  35  33 CALM      30.17R
GRAND JUNCTION CLEAR     67  38  34 CALM      30.05R
RIFLE          CLEAR     64  39  39 SE7       30.12R
MONTROSE       PTCLDY    68  46  45 SE8       30.16R
CORTEZ         CLEAR     61  46  57 E8        30.15R
PAGE, AZ       PTCLDY    84  43  23 S10       30.00R
GRAND CANYON   PTCLDY    58  47  66 CALM      30.21R
KINGMAN        CLEAR     79  47  32 S9        29.95R
FLAGSTAFF      CLEAR     58  49  72 E3        30.25R

$$

REGIONAL REPORTS    NEVADA/IDAHO/WYOMING

CITY           SKY/WX    TMP DP  RH WIND       PRES   REMARKS
LAS VEGAS, NV  PTCLDY    95  45  17 S9        29.79R HX  91
ELY            PTCLDY    62  33  33 S8        30.13R
ELKO           CLEAR     69  25  19 CALM      30.04R
POCATELLO, ID  CLEAR     68  27  21 S10       30.03R
BURLEY         CLEAR     62  47  57 S3        29.99R
EVANSTON, WY   PTCLDY    64  29  26 W8        30.23R
ROCK SPRINGS   PTCLDY    66  25  21 NW10      30.19R

$$



USA.gov is the U.S. government's official web portal to all federal, state and local government web resources and services.